This is the latest recevied weather packets stored in our database for station/object DH5WR-10. If no packets are shown the sender has not sent any weather packets the latest 10 day(s).
| Time | Temp. | Humidity | Pressure | Rain* | Wind** | Luminosity | Snow |
|---|---|---|---|---|---|---|---|
| 1777328541 | 10° C | 44% | 1019.2 hPa | - | - | - | - |
| 1777327641 | 10° C | 44% | 1019.3 hPa | - | - | - | - |
| 1777326741 | 11.11° C | 41% | 1019.3 hPa | - | - | - | - |
| 1777325841 | 11.11° C | 40% | 1019.3 hPa | - | - | - | - |
| 1777324941 | 11.11° C | 39% | 1019.3 hPa | - | - | - | - |
| 1777324040 | 11.67° C | 39% | 1019.4 hPa | - | - | - | - |
| 1777323140 | 12.22° C | 37% | 1019.4 hPa | - | - | - | - |
| 1777322240 | 12.22° C | 37% | 1019.4 hPa | - | - | - | - |
| 1777321340 | 12.22° C | 36% | 1019.4 hPa | - | - | - | - |
| 1777320440 | 12.78° C | 35% | 1019.6 hPa | - | - | - | - |
| 1777319540 | 13.33° C | 34% | 1019.6 hPa | - | - | - | - |
| 1777318640 | 13.33° C | 34% | 1019.6 hPa | - | - | - | - |
| 1777317740 | 13.89° C | 36% | 1019.7 hPa | - | - | - | - |
| 1777316839 | 14.44° C | 35% | 1019.6 hPa | - | - | - | - |
| 1777315939 | 14.44° C | 34% | 1019.5 hPa | - | - | - | - |
| 1777315039 | 14.44° C | 34% | 1019.5 hPa | - | - | - | - |
| 1777314139 | 15.56° C | 33% | 1019.3 hPa | - | - | - | - |
| 1777313239 | 16.11° C | 31% | 1019.2 hPa | - | - | - | - |
| 1777312339 | 16.67° C | 30% | 1019.2 hPa | - | - | - | - |
| 1777311439 | 16.67° C | 29% | 1019.3 hPa | - | - | - | - |
| 1777310538 | 17.22° C | 28% | 1019.3 hPa | - | - | - | - |
| 1777309638 | 17.22° C | 27% | 1019.3 hPa | - | - | - | - |
| 1777308738 | 17.22° C | 29% | 1019.5 hPa | - | - | - | - |
| 1777307838 | 17.78° C | 28% | 1019.5 hPa | - | - | - | - |
| 1777306938 | 17.78° C | 28% | 1019.6 hPa | - | - | - | - |
* Rain since midnight (hover to see other rain measurements)
** Current wind speed in m/s (hover to see current wind gust speed)